Location: Bemmer
(51.5498°N, 5.6249°E)
Time: 11:20:51
(UTC+00:00)

SL-08 RB Rocket - Pass Details

Date: 03 March 2021
Orbit: 647 x 683 km, 97.8° (Epoch: 17 April)

Event Time Altitude Azimuth Distance (km) Brightness Sun altitude
Rises 18:51:22 0° 171° (S) 2,968 6.9 -14.7°
Reaches altitude 10° 18:53:34 10° 174° (S) 2,066 6.1 -15.1°
Maximum altitude 18:58:04 70° 258° (WSW) 710 4.0 -15.7°
Drops below altitude 10° 19:02:40 10° 342° (NNW) 2,106 6.6 -16.4°
Sets 19:04:56 0° 345° (NNW) 3,030 7.5 -16.8°
